FW8443 Weather Reports


time (UTC)temp
C
wind
direction
speed
KPH
gust
KPH
rain 1hr
cm
rain 24hr
cm
rain mn
cm
humidity
%
barometer
mb
20260506234535 14 161 6.4 17.7 0.00 0.66 0.66 94 1009.9
20260506233038 14 106 4.8 16.1 0.00 0.66 0.66 94 1009.7
20260506231537 14 120 1.6 12.9 0.03 0.66 0.66 94 1009.5
20260506230042 14 149 3.2 14.5 0.03 0.66 0.66 94 1009.5
20260506224535 14 123 3.2 14.5 0.03 0.66 0.66 94 1009.5
20260506223036 14 133 3.2 14.5 0.03 0.66 0.66 94 1009.3
20260506221542 14 227 4.8 14.5 0.00 0.64 0.64 94 1009.4
20260506220046 14 128 3.2 12.9 0.00 0.64 0.64 93 1009.6
20260506214535 14 139 3.2 16.1 0.05 0.64 0.64 93 1009.4
20260506213036 14 152 4.8 16.1 0.10 0.64 0.64 93 1009.4
20260506211542 14 161 6.4 14.5 0.18 0.64 0.64 93 1009.6
20260506210035 14 211 3.2 16.1 0.18 0.64 0.64 93 1009.7
20260506204538 14 122 4.8 16.1 0.13 0.58 0.58 93 1009.9
20260506203033 14 122 3.2 11.3 0.08 0.51 0.51 93 1010.0
20260506201534 14 0 4.8 14.5 0.03 0.46 0.46 92 1010.1
20260506200035 14 221 4.8 12.9 0.03 0.46 0.46 92 1010.1
20260506194538 14 94 3.2 17.7 0.05 0.46 0.46 92 1010.3
20260506193036 14 125 1.6 17.7 0.05 0.43 0.43 92 1010.4
20260506191535 14 135 6.4 17.7 0.08 0.43 0.43 92 1010.4
20260506190036 14 120 6.4 19.3 0.10 0.43 0.43 92 1010.7
20260506184531 14 103 3.2 16.1 0.13 0.41 0.41 92 1011.0
20260506183031 14 227 4.8 16.1 0.20 0.38 0.38 91 1011.0
20260506181537 15 165 1.6 8.0 0.33 0.36 0.36 91 1010.7
20260506180034 15 195 1.6 14.5 0.33 0.33 0.33 90 1010.9
20260506174537 15 138 4.8 16.1 0.28 0.28 0.28 89 1011.3
20260506173034 16 142 1.6 16.1 0.18 0.18 0.18 86 1011.6
20260506171532 16 70 3.2 20.9 0.00 0.00 0.00 82 1011.8
20260506170032 17 191 6.4 19.3 0.00 0.00 0.00 77 1012.1
20260506164536 18 76 4.8 14.5 0.00 0.00 0.00 75 1011.9
20260506163035 18 137 4.8 19.3 0.00 0.00 0.00 75 1011.8
20260506161538 18 149 8.0 20.9 0.00 0.00 0.00 74 1012.0
20260506160032 18 200 8.0 22.5 0.00 0.00 0.00 73 1012.2
20260506154539 18 108 8.0 20.9 0.00 0.00 0.00 73 1012.4
20260506153042 19 317 8.0 25.7 0.00 0.00 0.00 71 1012.1
20260506151534 19 66 4.8 19.3 0.00 0.00 0.00 72 1012.2
20260506150043 19 169 6.4 25.7 0.00 0.00 0.00 72 1012.2
20260506144553 19 119 4.8 19.3 0.00 0.00 0.00 73 1012.4
20260506143046 19 165 6.4 24.1 0.00 0.00 0.00 73 1012.5
20260506141538 18 92 8.0 22.5 0.00 0.00 0.00 74 1012.5
20260506140053 18 94 6.4 24.1 0.00 0.00 0.00 76 1012.7
20260506134537 17 138 6.4 22.5 0.00 0.00 0.00 76 1012.4
20260506133037 17 116 8.0 20.9 0.00 0.00 0.00 77 1012.3
20260506131541 17 180 4.8 17.7 0.00 0.00 0.00 78 1012.4
20260506130041 17 151 8.0 24.1 0.00 0.00 0.00 79 1012.6
20260506124536 17 186 8.0 25.7 0.00 0.00 0.00 80 1013.1
20260506123039 16 145 8.0 20.9 0.00 0.00 0.00 80 1013.1
20260506121534 16 142 6.4 16.1 0.00 0.00 0.00 82 1013.1
20260506120036 16 181 4.8 16.1 0.00 0.00 0.00 82 1013.2
20260506114535 15 170 6.4 24.1 0.00 0.00 0.00 83 1013.1
20260506113039 15 169 8.0 22.5 0.00 0.00 0.00 83 1012.8
20260506111536 15 126 4.8 22.5 0.00 0.00 0.00 84 1013.3
20260506110039 15 148 4.8 19.3 0.00 0.00 0.00 84 1013.3
20260506104533 15 138 4.8 17.7 0.00 0.00 0.00 84 1013.2
20260506103036 14 131 6.4 19.3 0.00 0.00 0.00 85 1013.0
20260506101536 14 88 3.2 12.9 0.00 0.00 0.00 84 1013.0
20260506100037 14 169 9.7 17.7 0.00 0.00 0.00 84 1012.9
20260506094534 14 132 6.4 19.3 0.00 0.00 0.00 84 1012.9
20260506093035 15 90 4.8 14.5 0.00 0.00 0.00 83 1013.0
20260506091530 15 113 8.0 20.9 0.00 0.00 0.00 83 1012.9
20260506090040 15 161 4.8 19.3 0.00 0.00 0.00 83 1012.8
20260506084538 15 123 8.0 17.7 0.00 0.00 0.00 82 1013.0
20260506083033 15 144 4.8 14.5 0.00 0.00 0.00 82 1013.0
20260506081531 15 149 6.4 20.9 0.00 0.00 0.00 82 1013.0
20260506073037 15 113 3.2 24.1 0.00 0.00 0.00 80 1013.1
20260506071534 15 115 6.4 17.7 0.00 0.00 0.00 80 1013.1
20260506061543 15 127 9.7 22.5 0.00 0.00 0.00 79 1012.8
20260506044546 16 142 6.4 22.5 0.00 0.00 0.00 76 1013.7
20260506043035 16 96 8.0 22.5 0.00 0.00 0.00 75 1013.8
20260506041539 17 144 6.4 19.3 0.00 0.00 0.00 74 1013.7
20260506040035 17 148 8.0 20.9 0.00 0.00 0.00 73 1013.7
20260506034543 17 107 8.0 29.0 0.00 0.00 0.00 72 1013.6
20260506033033 17 131 6.4 25.7 0.00 0.00 0.00 71 1013.7
20260506031543 17 100 9.7 29.0 0.00 0.00 0.00 70 1013.6
20260506030035 17 117 8.0 29.0 0.00 0.00 0.00 69 1013.6
20260506024536 17 192 12.9 29.0 0.00 0.00 0.00 69 1013.4
20260506023031 17 164 8.0 20.9 0.00 0.00 0.00 70 1013.5
20260506021533 17 197 9.7 22.5 0.00 0.00 0.00 70 1013.5
20260506020036 17 157 6.4 24.1 0.00 0.00 0.00 70 1013.5
20260506014536 17 102 9.7 24.1 0.00 0.00 0.00 69 1013.2
20260506013035 17 153 8.0 27.4 0.00 0.00 0.00 68 1013.4
20260506011541 17 33 6.4 27.4 0.00 0.00 0.00 68 1013.2
20260506010049 17 236 8.0 24.1 0.00 0.00 0.00 67 1012.9
20260506004535 17 121 4.8 16.1 0.00 0.00 0.00 66 1013.0
20260506003035 18 149 8.0 25.7 0.00 0.00 0.00 65 1012.5
20260506001535 18 128 9.7 22.5 0.00 0.00 0.00 65 1012.2
20260506000034 18 112 8.0 19.3 0.00 0.00 0.00 65 1012.1